Location: Laterina
(43.5167°N, 11.7167°E)
Time: 16:02:32
(UTC+00:00)

Exosat Rocket - Pass Details

Date: 24 September 2020
Orbit: 761 x 2514 km, 72.3° (Epoch: 25 October)

Event Time Altitude Azimuth Distance (km) Brightness Sun altitude
Rises 17:49:34 0° 179° (S) 3,665 6.9 -8.7°
Reaches altitude 10° 17:52:26 10° 172° (S) 2,553 6.0 -9.2°
Maximum altitude 17:57:29 37° 106° (ESE) 1,217 4.1 -10.1°
Drops below altitude 10° 18:02:03 10° 39° (NE) 2,301 5.7 -10.9°
Sets 18:04:30 0° 31° (NNE) 3,254 6.5 -11.3°
